Location: ?????
(55.6500°N, 37.2500°E)
Time: 09:37:05
(UTC+00:00)

Cosmos 2084 Rocket - Pass Details

Date: 19 May 2025
Orbit: 542 x 579 km, 62.8° (Epoch: 12 June)

Event Time Altitude Azimuth Distance (km) Brightness Sun altitude
Rises 20:19:49 0° 234° (SW) 2,783 6.7 -13.0°
Reaches altitude 10° 20:22:03 10° 235° (SW) 1,883 5.8 -13.1°
Maximum altitude 20:26:18 84° 322° (NW) 581 3.4 -13.3°
Drops below altitude 10° 20:30:32 10° 53° (NE) 1,870 6.3 -13.4°
Sets 20:32:46 0° 54° (NE) 2,763 7.2 -13.5°
